STARLINK-37101

Last updated on Sun Apr 12 2026 00:02:07 GMT+0000 (Coordinated Universal Time)

1 68234U 26054C 26101.50002315 -.00020710 00000+0 -13131-3 0 9999 2 68234 53.1579 148.6862 0001320 69.3057 58.0161 15.75229075 5184
UTC large
Height (km)
Speed (km/s)
/
Latitude / Longitude
Inclination (degrees)
Orbital Period (minutes)
Azimuth
Elevation
Range (km)
Doppler Factor

Next 0 passes for location: London (51.5072 / 0.1276)

Sorry there are no passes over London.
STARLINK-37101